Culdrose, United Kingdom

10:08 AM BST on May 27, 2017 (GMT +0100)
Culdrose Navy

Weather History for EGDR - September, 2012

Change the Weather History Date:

Saturday, September 15, 2012

  Actual Average Record
Temperature  
Mean Temperature 56 °F -  
Max Temperature 63 °F 58 °F 68 °F (2003)
Min Temperature 48 °F 50 °F 46 °F (1996)
Degree Days  
Heating Degree Days 10    
Growing Degree Days 6 (Base 50)    
Moisture  
Dew Point 54 °F    
Average Humidity 88    
Maximum Humidity 100    
Minimum Humidity 69    
Precipitation  
Precipitation 0.01 in - - ()
Sea Level Pressure  
Sea Level Pressure 30.08 in    
Wind  
Wind Speed 5 mph ()    
Max Wind Speed 10 mph    
Max Gust Speed -    
Visibility 5.9 miles    
Events Fog    
Averages and records for this station are not official NWS values.
T = Trace of Precipitation, MM = Missing Value Source: Averaged Metar Reports

Daily Weather History Graph

Daily Weather History Graph

Search for Another Location

Airport or City:

Trip Planner

Search our weather history database for the weather conditions in past years. The results will help you decide how hot, cold, wet, or windy it might be!

Date:

Astronomy

Sep. 15, 2012 Rise Set
Actual Time 6:57 AM BST 7:33 PM BST
Civil Twilight 6:24 AM BST 8:06 PM BST
Nautical Twilight 5:45 AM BST 8:45 PM BST
Astronomical Twilight 5:04 AM BST 9:25 PM BST
Moon 6:13 AM BST (9/15) 6:51 PM BST (9/15)
Length of Visible Light 13h 41m
Length of Day
12h 36m
Waning Crescent, 1% of the Moon is Illuminated
Sep 15
Waning Crescent
Sep 16
New
Sep 22
First Quarter
Sep 30
Full
Oct 8
Last Quarter

Hourly Weather History & Observations

Time (BST) Temp. Dew Point Humidity Pressure Visibility Wind Dir Wind Speed Gust Speed Precip Events Conditions
12:50 AM 54 °F 54 °F 98% 30.14 in 6 mi NW 4.6 mph - -   Mist
12:50 AM 55.4 °F 53.6 °F 94% 30.12 in 6.2 mi NW 4.6 mph - N/A   Scattered Clouds
1:50 AM 53.6 °F 53.6 °F 100% 30.12 in 3.1 mi WNW 3.5 mph - N/A Fog Fog
2:50 AM 55.4 °F 53.6 °F 94% 30.12 in 5.0 mi West 5.8 mph - N/A   Scattered Clouds
3:50 AM 54 °F 54 °F 98% 30.12 in 3 mi NW 4.6 mph - - Fog Patches of Fog
3:50 AM 53.6 °F 53.6 °F 100% 30.12 in 3.1 mi NW 4.6 mph - N/A Fog Fog
4:50 AM 53.6 °F 51.8 °F 94% 30.09 in 2.5 mi WNW 4.6 mph - N/A Fog Fog
5:50 AM 50.0 °F 50.0 °F 100% 30.09 in 1.4 mi NW 3.5 mph - N/A Fog Fog
6:50 AM 50 °F 50 °F 100% 30.13 in 0 mi West 3.5 mph - - Fog Partial Fog
6:50 AM 50.0 °F 50.0 °F 100% 30.09 in 0.3 mi West 3.5 mph - N/A Fog Fog
7:50 AM 51.8 °F 51.8 °F 100% 30.09 in 0.5 mi WNW 4.6 mph - N/A Fog Fog
8:50 AM 55.4 °F 55.4 °F 100% 30.09 in 6.2 mi WNW 4.6 mph - N/A Fog Unknown
9:50 AM 59 °F 56 °F 88% 30.12 in 12 mi West 4.6 mph - -   Partly Cloudy
9:50 AM 59.0 °F 57.2 °F 94% 30.09 in 6.2 mi West 4.6 mph - N/A   Partly Cloudy
10:50 AM 60.8 °F 57.2 °F 88% 30.09 in 6.2 mi SW 9.2 mph - N/A   Partly Cloudy
11:50 AM 60.8 °F 57.2 °F 88% 30.09 in 6.2 mi WSW 9.2 mph - N/A   Partly Cloudy
12:50 PM 63 °F 55 °F 69% 30.10 in 12 mi WSW 10.4 mph - -   Partly Cloudy
12:50 PM 62.6 °F 55.4 °F 77% 30.09 in 6.2 mi WSW 10.4 mph - N/A   Partly Cloudy
1:50 PM 60.8 °F 53.6 °F 77% 30.09 in 6.2 mi West 8.1 mph - N/A   Scattered Clouds
2:50 PM 60.8 °F 51.8 °F 72% 30.06 in 6.2 mi West 10.4 mph - N/A   Mostly Cloudy
3:50 PM 60 °F 53 °F 69% 30.08 in 12 mi West 10.4 mph - -   Mostly Cloudy
3:50 PM 60.8 °F 51.8 °F 72% 30.06 in 6.2 mi West 10.4 mph - N/A   Mostly Cloudy
4:50 PM 59.0 °F 53.6 °F 82% 30.06 in 6.2 mi West 8.1 mph - N/A   Mostly Cloudy
5:50 PM 59.0 °F 53.6 °F 82% 30.04 in 6.2 mi West 8.1 mph - N/A   Mostly Cloudy
6:50 PM 58 °F 53 °F 78% 30.06 in 12 mi WNW 8.1 mph - -   Mostly Cloudy
6:50 PM 59.0 °F 53.6 °F 82% 30.04 in 6.2 mi WNW 8.1 mph - N/A   Mostly Cloudy
7:50 PM 57.2 °F 53.6 °F 88% 30.04 in 6.2 mi West 4.6 mph - N/A   Mostly Cloudy
8:50 PM 57.2 °F 51.8 °F 82% 30.04 in 6.2 mi West 4.6 mph - N/A   Mostly Cloudy
9:50 PM 57 °F 54 °F 85% 30.04 in 12 mi West 8.1 mph - -   Overcast
9:50 PM 57.2 °F 53.6 °F 88% 30.04 in 6.2 mi West 8.1 mph - N/A   Overcast
10:50 PM 55.4 °F 53.6 °F 94% 30.04 in 6.2 mi WNW 8.1 mph - N/A   Light Drizzle
11:50 PM 55.4 °F 53.6 °F 94% 30.01 in 6.2 mi West 4.6 mph - N/A   Haze